Notices

What's New in latest Release from April 7th, 2021:

- Updated Glossary, including Speed of Maximum Gust, and Total Hourly Precipitation

- Updated national and regional climate services offices contacts and prices information

- Addition of station inventory lists for 1981-2010, 1971-2000, and 1961-1990 Normals.

If you haven't already, please take our survey and provide feedback about our website: https://eccc.sondage-survey.ca/f/LanguageSelection.aspx?s=442ca660-fcf1-47c0-95a9-59707d6fd709

Hourly Data Report for March 13, 2021

MIRAMICHI RCS
NEW BRUNSWICK
Current Station Operator: ECCC - MSC

47°00'34.000" N
65°27'54.000" W
33.00 m
8100989
71744
ACQ

Download Data

Hourly Data (March 2021)
Hourly Data Report for March 13, 2021
TIME
LST
Temp Definition
°C
Dew Point Definition
°C
Rel Hum Definition
%
Precip. Amount Definition
mm

Wind Dir Definition
10's deg

Wind Spd Definition
km/h
Visibility Definition
km
Stn Press Definition
kPa
Hmdx Definition


Wind Chill Definition


Weather Definition


00:00 2.7 -8.3 44 LegendMM 27 25   99.58     LegendNANA
01:00 1.9 -9.1 44 LegendMM 27 16   99.53     LegendNANA
02:00 1.2 -8.8 47 LegendMM 28 21   99.53     LegendNANA
03:00 -1.2 -7.0 65 LegendMM 32 23   99.60   -7 LegendNANA
04:00 -1.6 -10.3 51 LegendMM 29 23   99.58   -8 LegendNANA
05:00 -2.1 -9.5 57 LegendMM 30 26   99.66   -9 LegendNANA
06:00 -2.2 -11.3 50 LegendMM 31 22   99.74   -8 LegendNANA
07:00 -2.5 -10.4 55 LegendMM 29 27   99.80   -9 LegendNANA
08:00 -2.7 -11.3 51 LegendMM 30 26   99.90   -10 LegendNANA
09:00 -2.5 -11.8 49 LegendMM 31 27   99.99   -9 LegendNANA
10:00 -2.1 -12.1 46 LegendMM 31 30   100.04   -9 LegendNANA
11:00 -0.8 -12.3 42 LegendMM 31 26   100.09   -7 LegendNANA
12:00 -0.3 -12.4 40 LegendMM 32 24   100.15   -6 LegendNANA
13:00 0.5 -12.4 37 LegendMM 30 29   100.12     LegendNANA
14:00 1.1 -12.2 36 LegendMM 30 23   100.11     LegendNANA
15:00 1.0 -12.1 37 LegendMM 31 20   100.13     LegendNANA
16:00 0.7 -13.9 33 LegendMM 30 26   100.16     LegendNANA
17:00 0.1 -14.8 32 LegendMM 30 24   100.18     LegendNANA
18:00 -1.4 -14.9 35 LegendMM 30 17   100.24   -7 LegendNANA
19:00 -2.2 -14.8 37 LegendMM 31 18   100.32   -8 LegendNANA
20:00 -2.9 -14.1 42 LegendMM 30 14   100.37   -8 LegendNANA
21:00 -3.6 -14.7 42 LegendMM 29 22   100.42   -10 LegendNANA
22:00 -4.5 -14.9 44 LegendMM 29 17   100.43   -10 LegendNANA
23:00 -5.0 -15.1 45 LegendMM 30 13   100.41   -10 LegendNANA

Notes on Data Quality.

Legend

  • E = Estimated
  • M = Missing
  • NA = Not Available*
  • [empty] = Indicates an unobserved value
Date modified: